Location: Moscow
(55.7500°N, 37.5830°E)
Time: 19:59:41
(UTC+03:00)

ISS - Pass Details

Date: 18 May 2021
Orbit: 417 x 422 km, 51.6° (Epoch: 16 June)

Event Time Altitude Azimuth Distance (km) Brightness Sun altitude
Rises 00:44:15 0° 270° (W) 2,371 0.0 -14.6°
Reaches altitude 10° 00:46:28 10° 260° (W) 1,506 -1.1 -14.6°
Maximum altitude 00:49:32 33° 195° (SSW) 737 -3.1 -14.5°
Enters shadow 00:49:55 32° 180° (S) 755 -3.0 -14.5°
